Location: El Conde
(10.2895°N, 67.2409°W)
Time: 07:09:41
(UTC+00:00)

Ariane H10+ - Pass Details

Date: 19 May 2024
Orbit: 400 x 35140 km, 7.7° (Epoch: 22 June)

Event Time Altitude Azimuth Distance (km) Brightness Sun altitude
Rises 22:53:22 0° 263° (W) 2,287 6.8 -2.9°
Reaches altitude 10° 22:54:55 10° 258° (WSW) 1,464 5.5 -3.3°
Maximum altitude 22:57:29 60° 176° (S) 622 2.5 -3.9°
Drops below altitude 10° 23:03:35 10° 96° (E) 3,428 5.7 -5.3°
Enters shadow 23:06:48 - 94° (E) 5,013 6.6 -6.0°
